This is the latest recevied weather packets stored in our database for station/object VE2XOX. If no packets are shown the sender has not sent any weather packets the latest 10 day(s).
| Time | Temp. | Humidity | Pressure | Rain* | Wind** | Luminosity | Snow |
|---|---|---|---|---|---|---|---|
| 1777664724 | 8.89° C | 59% | 1007.2 hPa | 0 mm | - | - | - |
| 1777664434 | 8.89° C | 59% | 1007.1 hPa | 0 mm | - | - | - |
| 1777664122 | 8.89° C | 59% | 1007.1 hPa | 0 mm | - | - | - |
| 1777663824 | 9.44° C | 59% | 1007.1 hPa | 0 mm | - | - | - |
| 1777663220 | 9.44° C | 59% | 1007.1 hPa | 0 mm | - | - | - |
| 1777662323 | 8.89° C | 61% | 1007.1 hPa | 0 mm | - | - | - |
| 1777660814 | 8.89° C | 61% | 1006.9 hPa | 0 mm | - | - | - |
| 1777660527 | 8.89° C | 60% | 1006.8 hPa | 0 mm | - | - | - |
| 1777660218 | 8.89° C | 61% | 1006.7 hPa | 0 mm | - | - | - |
| 1777659630 | 8.89° C | 62% | 1006.7 hPa | 0 mm | - | - | - |
| 1777659315 | 8.89° C | 62% | 1006.7 hPa | 0 mm | - | - | - |
| 1777659019 | 8.89° C | 64% | 1006.8 hPa | 0 mm | - | - | - |
| 1777658121 | 8.89° C | 63% | 1006.6 hPa | 0 mm | - | - | - |
| 1777655421 | 8.33° C | 66% | 1006.5 hPa | 0 mm | - | - | - |
| 1777655131 | 8.33° C | 69% | 1006.5 hPa | 0 mm | - | - | - |
| 1777654227 | 7.78° C | 70% | 1006.5 hPa | 0 mm | - | - | - |
| 1777652716 | 7.78° C | 72% | 1006.6 hPa | 0 mm | - | - | - |
| 1777652427 | 7.22° C | 71% | 1006.5 hPa | 0 mm | - | - | - |
| 1777651817 | 7.78° C | 73% | 1006.6 hPa | 0 mm | - | - | - |
| 1777651530 | 7.78° C | 72% | 1006.6 hPa | 0 mm | - | - | - |
| 1777651214 | 7.78° C | 74% | 1006.5 hPa | 0 mm | - | - | - |
| 1777650918 | 7.22° C | 74% | 1006.5 hPa | 0 mm | - | - | - |
| 1777650629 | 7.22° C | 74% | 1006.5 hPa | 0 mm | - | - | - |
| 1777650026 | 7.22° C | 75% | 1006.5 hPa | 0 mm | - | - | - |
| 1777649728 | 7.22° C | 76% | 1006.5 hPa | 0 mm | - | - | - |
* Rain latest hour (hover to see other rain measurements)
** Current wind speed in m/s (hover to see current wind gust speed)